Time,TemperatureF,DewpointF,PressureIn,WindDirection,WindDirectionDegrees,WindSpeedMPH,WindSpeedGustMPH,Humidity,HourlyPrecipIn,Conditions,Clouds,dailyrainin,SoftwareType,DateUTC
2013-06-02 00:03:00,66.0,-99.9,30.00,SSE,158,1.0,2.0,80,0.00,,,0.00,,2013-06-02 04:03:00,
2013-06-02 00:13:00,66.0,60.0,30.00,SSE,158,1.0,2.0,80,0.00,,,0.00,,2013-06-02 04:13:00,
2013-06-02 00:23:00,66.0,60.0,30.00,SSE,158,1.0,2.0,80,0.00,,,0.00,,2013-06-02 04:23:00,
2013-06-02 00:33:00,67.0,60.0,30.00,SE,135,1.0,3.0,79,0.00,,,0.00,,2013-06-02 04:33:00,
2013-06-02 00:42:00,67.0,60.0,30.00,SE,135,1.0,3.0,79,0.00,,,0.00,,2013-06-02 04:42:00,
2013-06-02 00:53:00,67.0,60.0,30.00,SE,135,1.0,3.0,79,0.00,,,0.00,,2013-06-02 04:53:00,
2013-06-02 01:03:00,66.0,60.0,29.99,SE,135,0.0,5.0,80,0.00,,,0.00,,2013-06-02 05:03:00,
2013-06-02 01:12:00,66.0,60.0,29.99,SE,135,0.0,5.0,80,0.00,,,0.00,,2013-06-02 05:12:00,
2013-06-02 01:22:00,66.0,60.0,29.99,SE,135,0.0,5.0,80,0.00,,,0.00,,2013-06-02 05:22:00,
2013-06-02 01:32:00,66.0,60.0,29.98,ESE,113,0.0,5.0,82,0.00,,,0.00,,2013-06-02 05:32:00,
2013-06-02 01:42:00,66.0,60.0,29.98,ESE,113,0.0,5.0,82,0.00,,,0.00,,2013-06-02 05:42:00,
2013-06-02 01:52:00,66.0,60.0,29.98,ESE,113,0.0,5.0,82,0.00,,,0.00,,2013-06-02 05:52:00,
2013-06-02 02:01:00,66.0,61.0,29.97,NE,45,0.0,3.0,83,0.00,,,0.00,,2013-06-02 06:01:00,
2013-06-02 02:12:00,66.0,61.0,29.97,NE,45,0.0,3.0,83,0.00,,,0.00,,2013-06-02 06:12:00,
2013-06-02 02:21:00,66.0,61.0,29.97,NE,45,0.0,3.0,83,0.00,,,0.00,,2013-06-02 06:21:00,
2013-06-02 02:32:00,68.0,61.0,29.95,East,90,2.0,8.0,79,0.00,,,0.00,,2013-06-02 06:32:00,
2013-06-02 02:42:00,68.0,61.0,29.95,East,90,2.0,8.0,79,0.00,,,0.00,,2013-06-02 06:42:00,
2013-06-02 02:52:00,68.0,61.0,29.95,East,90,2.0,8.0,79,0.00,,,0.00,,2013-06-02 06:52:00,
2013-06-02 03:02:00,68.0,62.0,29.93,SE,135,1.0,5.0,80,0.00,,,0.00,,2013-06-02 07:02:00,
2013-06-02 03:11:00,68.0,62.0,29.93,SE,135,1.0,5.0,80,0.00,,,0.00,,2013-06-02 07:11:00,
2013-06-02 03:22:00,68.0,62.0,29.93,SE,135,1.0,5.0,80,0.00,,,0.00,,2013-06-02 07:22:00,
2013-06-02 03:32:00,67.0,61.0,29.92,South,180,0.0,5.0,82,0.00,,,0.00,,2013-06-02 07:32:00,
2013-06-02 03:42:00,67.0,61.0,29.92,South,180,0.0,5.0,82,0.00,,,0.00,,2013-06-02 07:42:00,
2013-06-02 03:52:00,67.0,61.0,29.92,South,180,0.0,5.0,82,0.00,,,0.00,,2013-06-02 07:52:00,
2013-06-02 04:02:00,67.0,62.0,29.93,SSE,158,0.0,3.0,83,0.00,,,0.00,,2013-06-02 08:02:00,
2013-06-02 04:12:00,67.0,62.0,29.93,SSE,158,0.0,3.0,83,0.00,,,0.00,,2013-06-02 08:12:00,
2013-06-02 04:22:00,67.0,62.0,29.93,SSE,158,0.0,3.0,83,0.00,,,0.00,,2013-06-02 08:22:00,
2013-06-02 04:32:00,67.0,62.0,29.93,SE,135,1.0,8.0,83,0.00,,,0.00,,2013-06-02 08:32:00,
2013-06-02 04:42:00,67.0,62.0,29.93,SE,135,1.0,8.0,83,0.00,,,0.00,,2013-06-02 08:42:00,
2013-06-02 04:52:00,67.0,62.0,29.93,SE,135,1.0,8.0,83,0.00,,,0.00,,2013-06-02 08:52:00,
2013-06-02 05:01:00,67.0,62.0,29.93,ESE,113,2.0,7.0,85,0.00,,,0.00,,2013-06-02 09:01:00,
2013-06-02 05:11:00,67.0,62.0,29.93,ESE,113,2.0,7.0,85,0.00,,,0.00,,2013-06-02 09:11:00,
2013-06-02 05:21:00,67.0,62.0,29.93,ESE,113,2.0,7.0,85,0.00,,,0.00,,2013-06-02 09:21:00,
2013-06-02 05:33:00,66.0,62.0,29.92,South,180,0.0,6.0,86,0.00,,,0.00,,2013-06-02 09:33:00,
2013-06-02 05:42:00,66.0,62.0,29.92,South,180,0.0,6.0,86,0.00,,,0.00,,2013-06-02 09:42:00,
2013-06-02 05:53:00,66.0,62.0,29.92,South,180,0.0,6.0,86,0.00,,,0.00,,2013-06-02 09:53:00,
2013-06-02 06:02:00,66.0,62.0,29.92,SSE,158,0.0,5.0,86,0.00,,,0.00,,2013-06-02 10:02:00,
2013-06-02 06:12:00,66.0,62.0,29.92,SSE,158,0.0,5.0,86,0.00,,,0.00,,2013-06-02 10:12:00,
2013-06-02 06:23:00,66.0,62.0,29.92,SSE,158,0.0,5.0,86,0.00,,,0.00,,2013-06-02 10:23:00,
2013-06-02 06:33:00,66.0,62.0,29.92,ENE,68,2.0,6.0,86,0.00,,,0.00,,2013-06-02 10:33:00,
2013-06-02 06:42:00,66.0,62.0,29.92,ENE,68,2.0,6.0,86,0.00,,,0.00,,2013-06-02 10:42:00,
2013-06-02 06:52:00,66.0,62.0,29.92,ENE,68,2.0,6.0,86,0.00,,,0.00,,2013-06-02 10:52:00,
2013-06-02 07:02:00,66.0,62.0,29.92,SSE,158,0.0,7.0,87,0.00,,,0.00,,2013-06-02 11:02:00,
2013-06-02 07:12:00,66.0,62.0,29.92,SSE,158,0.0,7.0,87,0.00,,,0.00,,2013-06-02 11:12:00,
2013-06-02 07:22:00,66.0,62.0,29.92,SSE,158,0.0,7.0,87,0.00,,,0.00,,2013-06-02 11:22:00,
2013-06-02 07:32:00,66.0,62.0,29.93,SSE,158,3.0,5.0,86,0.00,,,0.00,,2013-06-02 11:32:00,
2013-06-02 07:42:00,66.0,62.0,29.93,SSE,158,3.0,5.0,86,0.00,,,0.00,,2013-06-02 11:42:00,
2013-06-02 07:52:00,66.0,62.0,29.93,SSE,158,3.0,5.0,86,0.00,,,0.00,,2013-06-02 11:52:00,
2013-06-02 08:02:00,68.0,63.0,29.91,ESE,113,1.0,8.0,84,0.00,,,0.00,,2013-06-02 12:02:00,
2013-06-02 08:11:00,68.0,63.0,29.91,ESE,113,1.0,8.0,84,0.00,,,0.00,,2013-06-02 12:11:00,
2013-06-02 08:22:00,68.0,63.0,29.91,ESE,113,1.0,8.0,84,0.00,,,0.00,,2013-06-02 12:22:00,
2013-06-02 08:32:00,67.0,62.0,29.93,SE,135,1.0,3.0,84,0.00,,,0.00,,2013-06-02 12:32:00,
2013-06-02 08:42:00,67.0,62.0,29.93,SE,135,1.0,3.0,84,0.00,,,0.00,,2013-06-02 12:42:00,
2013-06-02 08:53:00,67.0,62.0,29.93,SE,135,1.0,3.0,84,0.00,,,0.00,,2013-06-02 12:53:00,
2013-06-02 09:01:00,68.0,63.0,29.93,ENE,68,1.0,5.0,84,0.00,,,0.00,,2013-06-02 13:01:00,
2013-06-02 09:12:00,68.0,63.0,29.93,ENE,68,1.0,5.0,84,0.00,,,0.00,,2013-06-02 13:12:00,
2013-06-02 09:22:00,68.0,63.0,29.93,ENE,68,1.0,5.0,84,0.00,,,0.00,,2013-06-02 13:22:00,
2013-06-02 09:32:00,69.0,63.0,29.93,SE,135,2.0,9.0,82,0.00,,,0.00,,2013-06-02 13:32:00,
2013-06-02 09:42:00,69.0,63.0,29.93,SE,135,2.0,9.0,82,0.00,,,0.00,,2013-06-02 13:42:00,
2013-06-02 09:52:00,69.0,63.0,29.93,SE,135,2.0,9.0,82,0.00,,,0.00,,2013-06-02 13:52:00,
2013-06-02 10:02:00,70.0,64.0,29.92,East,90,0.0,6.0,80,0.00,,,0.00,,2013-06-02 14:02:00,
2013-06-02 10:11:00,70.0,64.0,29.92,East,90,0.0,6.0,80,0.00,,,0.00,,2013-06-02 14:11:00,
2013-06-02 10:22:00,70.0,64.0,29.92,East,90,0.0,6.0,80,0.00,,,0.00,,2013-06-02 14:22:00,
2013-06-02 10:32:00,70.0,63.0,29.93,WNW,293,1.0,5.0,79,0.00,,,0.00,,2013-06-02 14:32:00,
2013-06-02 10:42:00,70.0,63.0,29.93,WNW,293,1.0,5.0,79,0.00,,,0.00,,2013-06-02 14:42:00,
2013-06-02 10:52:00,70.0,63.0,29.93,WNW,293,1.0,5.0,79,0.00,,,0.00,,2013-06-02 14:52:00,
2013-06-02 11:01:00,71.0,64.0,29.93,SSE,158,0.0,5.0,78,0.00,,,0.00,,2013-06-02 15:01:00,
2013-06-02 11:11:00,71.0,64.0,29.93,SSE,158,0.0,5.0,78,0.00,,,0.00,,2013-06-02 15:11:00,
2013-06-02 11:22:00,71.0,64.0,29.93,SSE,158,0.0,5.0,78,0.00,,,0.00,,2013-06-02 15:22:00,
2013-06-02 11:33:00,72.0,65.0,29.93,SSE,158,2.0,6.0,79,0.00,,,0.00,,2013-06-02 15:33:00,
2013-06-02 11:43:00,72.0,65.0,29.93,SSE,158,2.0,6.0,79,0.00,,,0.00,,2013-06-02 15:43:00,
2013-06-02 11:53:00,72.0,65.0,29.93,SSE,158,2.0,6.0,79,0.00,,,0.00,,2013-06-02 15:53:00,
2013-06-02 12:03:00,73.0,65.0,29.93,ENE,68,0.0,3.0,77,0.00,,,0.00,,2013-06-02 16:03:00,
2013-06-02 12:13:00,73.0,65.0,29.93,ENE,68,0.0,3.0,77,0.00,,,0.00,,2013-06-02 16:13:00,
2013-06-02 12:23:00,73.0,65.0,29.93,ENE,68,0.0,3.0,77,0.00,,,0.00,,2013-06-02 16:23:00,
2013-06-02 12:33:00,69.0,66.0,29.93,ESE,113,0.0,2.0,91,0.03,,,0.03,,2013-06-02 16:33:00,
2013-06-02 12:42:00,69.0,66.0,29.93,ESE,113,0.0,2.0,91,0.03,,,0.03,,2013-06-02 16:42:00,
2013-06-02 12:53:00,69.0,66.0,29.93,ESE,113,0.0,2.0,91,0.03,,,0.03,,2013-06-02 16:53:00,
2013-06-02 13:02:00,70.0,67.0,29.94,ESE,113,0.0,1.0,91,0.03,,,0.03,,2013-06-02 17:02:00,
2013-06-02 13:12:00,70.0,67.0,29.94,ESE,113,0.0,1.0,91,0.03,,,0.03,,2013-06-02 17:12:00,
2013-06-02 13:23:00,70.0,67.0,29.94,ESE,113,0.0,1.0,91,0.03,,,0.03,,2013-06-02 17:23:00,
2013-06-02 13:32:00,66.0,63.0,29.96,NE,45,1.0,5.0,90,0.44,,,0.44,,2013-06-02 17:32:00,
2013-06-02 13:42:00,66.0,63.0,29.96,NE,45,1.0,5.0,90,0.44,,,0.44,,2013-06-02 17:42:00,
2013-06-02 13:52:00,66.0,63.0,29.96,NE,45,1.0,5.0,90,0.44,,,0.44,,2013-06-02 17:52:00,
2013-06-02 14:02:00,64.0,62.0,29.96,WSW,248,0.0,3.0,94,0.96,,,0.99,,2013-06-02 18:02:00,
2013-06-02 14:11:00,64.0,62.0,29.96,WSW,248,0.0,3.0,94,0.96,,,0.99,,2013-06-02 18:11:00,
2013-06-02 14:21:00,64.0,62.0,29.96,WSW,248,0.0,3.0,94,0.96,,,0.99,,2013-06-02 18:21:00,
2013-06-02 14:32:00,63.0,61.0,29.94,SSE,158,0.0,2.0,94,0.62,,,1.09,,2013-06-02 18:32:00,
2013-06-02 14:42:00,63.0,61.0,29.94,SSE,158,0.0,2.0,94,0.62,,,1.09,,2013-06-02 18:42:00,
2013-06-02 14:52:00,63.0,61.0,29.94,SSE,158,0.0,2.0,94,0.62,,,1.09,,2013-06-02 18:52:00,
2013-06-02 15:01:00,67.0,66.0,29.92,NNE,23,1.0,3.0,96,0.11,,,1.10,,2013-06-02 19:01:00,
2013-06-02 15:11:00,67.0,66.0,29.92,NNE,23,1.0,3.0,96,0.11,,,1.10,,2013-06-02 19:11:00,
2013-06-02 15:22:00,67.0,66.0,29.92,NNE,23,1.0,3.0,96,0.11,,,1.10,,2013-06-02 19:22:00,
2013-06-02 15:32:00,69.0,65.0,29.92,South,180,1.0,7.0,88,0.01,,,1.10,,2013-06-02 19:32:00,
2013-06-02 15:42:00,69.0,65.0,29.92,South,180,1.0,7.0,88,0.01,,,1.10,,2013-06-02 19:42:00,
2013-06-02 15:52:00,69.0,65.0,29.92,South,180,1.0,7.0,88,0.01,,,1.10,,2013-06-02 19:52:00,
2013-06-02 16:02:00,70.0,67.0,29.91,SE,135,1.0,2.0,91,0.00,,,1.10,,2013-06-02 20:02:00,
2013-06-02 16:11:00,70.0,67.0,29.91,SE,135,1.0,2.0,91,0.00,,,1.10,,2013-06-02 20:11:00,
2013-06-02 16:22:00,70.0,67.0,29.91,SE,135,1.0,2.0,91,0.00,,,1.10,,2013-06-02 20:22:00,
2013-06-02 16:32:00,67.0,65.0,29.91,SE,135,0.0,3.0,93,0.04,,,1.14,,2013-06-02 20:32:00,
2013-06-02 16:42:00,67.0,65.0,29.91,SE,135,0.0,3.0,93,0.04,,,1.14,,2013-06-02 20:42:00,
2013-06-02 16:52:00,67.0,65.0,29.91,SE,135,0.0,3.0,93,0.04,,,1.14,,2013-06-02 20:52:00,
2013-06-02 17:02:00,67.0,65.0,29.90,SE,135,3.0,3.0,93,0.06,,,1.16,,2013-06-02 21:02:00,
2013-06-02 17:12:00,67.0,65.0,29.90,SE,135,3.0,3.0,93,0.06,,,1.16,,2013-06-02 21:12:00,
2013-06-02 17:22:00,67.0,65.0,29.90,SE,135,3.0,3.0,93,0.06,,,1.16,,2013-06-02 21:22:00,
2013-06-02 17:33:00,66.0,64.0,29.91,SSE,158,2.0,3.0,93,0.02,,,1.16,,2013-06-02 21:33:00,
2013-06-02 17:42:00,66.0,64.0,29.91,SSE,158,2.0,3.0,93,0.02,,,1.16,,2013-06-02 21:42:00,
2013-06-02 17:53:00,66.0,64.0,29.91,SSE,158,2.0,3.0,93,0.02,,,1.16,,2013-06-02 21:53:00,
2013-06-02 18:03:00,66.0,63.0,29.91,South,180,1.0,5.0,91,0.00,,,1.16,,2013-06-02 22:03:00,
2013-06-02 18:12:00,66.0,63.0,29.91,South,180,1.0,5.0,91,0.00,,,1.16,,2013-06-02 22:12:00,
2013-06-02 18:23:00,66.0,63.0,29.91,South,180,1.0,5.0,91,0.00,,,1.16,,2013-06-02 22:23:00,
2013-06-02 18:33:00,65.0,63.0,29.91,SE,135,0.0,2.0,92,0.00,,,1.16,,2013-06-02 22:33:00,
2013-06-02 18:42:00,65.0,63.0,29.91,SE,135,0.0,2.0,92,0.00,,,1.16,,2013-06-02 22:42:00,
2013-06-02 18:53:00,65.0,63.0,29.91,SE,135,0.0,2.0,92,0.00,,,1.16,,2013-06-02 22:53:00,
2013-06-02 19:02:00,65.0,63.0,29.91,SE,135,0.0,3.0,93,0.00,,,1.16,,2013-06-02 23:02:00,
2013-06-02 19:12:00,65.0,63.0,29.91,SE,135,0.0,3.0,93,0.00,,,1.16,,2013-06-02 23:12:00,
2013-06-02 19:22:00,65.0,63.0,29.91,SE,135,0.0,3.0,93,0.00,,,1.16,,2013-06-02 23:22:00,
2013-06-02 19:32:00,65.0,63.0,29.91,SSE,158,0.0,6.0,94,0.00,,,1.16,,2013-06-02 23:32:00,
2013-06-02 19:42:00,65.0,63.0,29.91,SSE,158,0.0,6.0,94,0.00,,,1.16,,2013-06-02 23:42:00,
2013-06-02 19:53:00,65.0,63.0,29.91,SSE,158,0.0,6.0,94,0.00,,,1.16,,2013-06-02 23:53:00,
2013-06-02 20:01:00,65.0,64.0,29.91,ESE,113,0.0,1.0,95,0.00,,,1.16,,2013-06-03 00:01:00,
2013-06-02 20:12:00,65.0,64.0,29.91,ESE,113,0.0,1.0,95,0.00,,,1.16,,2013-06-03 00:12:00,
2013-06-02 20:22:00,65.0,64.0,29.91,ESE,113,0.0,1.0,95,0.00,,,1.16,,2013-06-03 00:22:00,
2013-06-02 20:32:00,64.0,63.0,29.90,SE,135,0.0,3.0,95,0.01,,,1.17,,2013-06-03 00:32:00,
2013-06-02 20:42:00,64.0,63.0,29.90,SE,135,0.0,3.0,95,0.01,,,1.17,,2013-06-03 00:42:00,
2013-06-02 20:52:00,64.0,63.0,29.90,SE,135,0.0,3.0,95,0.01,,,1.17,,2013-06-03 00:52:00,
2013-06-02 21:01:00,64.0,63.0,29.91,ESE,113,1.0,5.0,95,0.01,,,1.17,,2013-06-03 01:01:00,
2013-06-02 21:11:00,64.0,63.0,29.91,ESE,113,1.0,5.0,95,0.01,,,1.17,,2013-06-03 01:11:00,
2013-06-02 21:21:00,64.0,63.0,29.91,ESE,113,1.0,5.0,95,0.01,,,1.17,,2013-06-03 01:21:00,
2013-06-02 21:32:00,64.0,63.0,29.93,SE,135,0.0,1.0,95,0.00,,,1.17,,2013-06-03 01:32:00,
2013-06-02 21:42:00,64.0,63.0,29.93,SE,135,0.0,1.0,95,0.00,,,1.17,,2013-06-03 01:42:00,
2013-06-02 21:52:00,64.0,63.0,29.93,SE,135,0.0,1.0,95,0.00,,,1.17,,2013-06-03 01:52:00,
2013-06-02 22:02:00,63.0,62.0,29.92,SE,135,0.0,0.0,96,0.00,,,1.17,,2013-06-03 02:02:00,
2013-06-02 22:12:00,63.0,62.0,29.92,SE,135,0.0,0.0,96,0.00,,,1.17,,2013-06-03 02:12:00,
2013-06-02 22:22:00,63.0,62.0,29.92,SE,135,0.0,0.0,96,0.00,,,1.17,,2013-06-03 02:22:00,
2013-06-02 22:32:00,63.0,62.0,29.92,SE,135,0.0,0.0,97,0.00,,,1.17,,2013-06-03 02:32:00,
2013-06-02 22:42:00,63.0,62.0,29.92,SE,135,0.0,0.0,97,0.00,,,1.17,,2013-06-03 02:42:00,
2013-06-02 22:52:00,63.0,62.0,29.92,SE,135,0.0,0.0,97,0.00,,,1.17,,2013-06-03 02:52:00,
2013-06-02 23:02:00,62.0,61.0,29.92,SE,135,0.0,1.0,97,0.00,,,1.17,,2013-06-03 03:02:00,
2013-06-02 23:12:00,62.0,61.0,29.92,SE,135,0.0,1.0,97,0.00,,,1.17,,2013-06-03 03:12:00,
2013-06-02 23:22:00,62.0,61.0,29.92,SE,135,0.0,1.0,97,0.00,,,1.17,,2013-06-03 03:22:00,
2013-06-02 23:33:00,62.0,61.0,29.92,SE,135,0.0,0.0,97,0.00,,,1.17,,2013-06-03 03:33:00,
2013-06-02 23:43:00,62.0,61.0,29.92,SE,135,0.0,0.0,97,0.00,,,1.17,,2013-06-03 03:43:00,
2013-06-02 23:53:00,62.0,61.0,29.92,SE,135,0.0,0.0,97,0.00,,,1.17,,2013-06-03 03:53:00,